User: anonymous   Login
Location: Ku?niki
(51.4449°N, 17.8974°E)
Time: 19:04:04
(UTC+00:00)
Language:

Landsat 7 - Orbit

View from above orbital plane
View from above orbital plane
View from above satellite
View from above satellite

Ground track
Ground track

The orbit data is extracted from the following two-line orbital elements,

1 25682U 99020A   21333.10153576 -.00000624  00000-0 -12856-3 0  9992
2 25682  98.0104  23.9465 0001532  71.0057 289.1335 14.57206811203378
Epoch (UTC): 29 November 2021 02:26:12
Eccentricity: 0.0001532
inclination: 98.0104°
perigee height: 701 km
apogee height: 703 km
right ascension of ascending node: 23.9465°
argument of perigee: 71.0057°
revolutions per day: 14.57206811
mean anomaly at epoch: 289.1335°
orbit number at epoch: 20337

The dashed part of the orbit path shows where the satellite is in the earth's shadow,  

DLR